Home > Weather > Pamplona > Past weeks

Flag for Spain Weather for the Past 2 Weeks in Pamplona, Spain

Now
41 °F

Rain. Broken clouds.


Feels Like: 33 °F
Forecast: 34 / 39 °F
Wind: 16 mph from Northwest

Location: Pamplona / Noain

Current Time: Feb 14, 2016 at 4:40:30 PM

Latest Report: Feb 14, 2016 at 4:00 PM


Visibility: N/A

Pressure: 29.53 "Hg

Humidity: 81%

Dew point: 36 °F

Location of PamplonaLocation

Historic Weather in Pamplona — Graph

°F

Pamplona Temperature Yesterday

Maximum temperature yesterday: 64 °F (at 1:30 PM)
Minimum temperature yesterday: 46 °F (at 7:30 AM)
Average temperature yesterday: 54 °F

High & Low Weather Summary for the Past Weeks

 TemperatureHumidityPressure
High64 °F (Feb 13, 1:30 PM)100% (Jan 30, 9:30 PM)30.66 "Hg (Jan 30, 9:30 PM)
Low28 °F (Feb 5, 5:30 AM)29% (Feb 5, 4:00 PM)29.45 "Hg (Feb 13, 11:30 PM)
Average47 °F80%30.11 "Hg
* Reported Jan 30 3:30 PM — Feb 14 3:30 PM, Pamplona, Weather by CustomWeather, © 2016

Note: Actual official high and low records may vary slightly from our data, if they occured in-between our weather recording intervals... More about our weather records

Advertising

Pamplona Weather History for the Previous 24 Hours

 ConditionsComfort  
Time TempWeatherWind HumidityBarometerVisibility
3:30 PM
Sun, Feb 14
43 °FBroken clouds.9 mph81%29.50 "HgN/A
3:00 PM45 °FBroken clouds.10 mph76%29.50 "HgN/A
2:30 PM46 °FBroken clouds.12 mph71%29.47 "HgN/A
2:00 PM45 °FBroken clouds.2 mph81%29.47 "HgN/A
1:30 PM39 °FBroken clouds.9 mph93%29.47 "HgN/A
1:00 PM39 °FRain. Broken clouds.13 mph87%29.50 "Hg4 mi
12:30 PM45 °FPartly sunny.9 mph76%29.47 "HgN/A
12:00 PM45 °FRain. Broken clouds.8 mph76%29.47 "HgN/A
11:30 AM43 °FRain. Broken clouds.7 mph81%29.47 "HgN/A
11:00 AM45 °FRain. Broken clouds.9 mph71%29.47 "HgN/A
10:30 AM46 °FScattered clouds.10 mph66%29.47 "HgN/A
10:00 AM46 °FScattered clouds.2 mph62%29.50 "HgN/A
9:30 AM45 °FScattered clouds.6 mph76%29.50 "HgN/A
9:00 AM43 °FScattered clouds.6 mph81%29.50 "HgN/A
8:30 AM41 °FScattered clouds.8 mph81%29.50 "HgN/A
8:00 AM39 °FPassing clouds.5 mph87%29.50 "HgN/A
7:30 AM43 °FPassing clouds.No wind76%29.50 "HgN/A
7:00 AM45 °FPassing clouds.3 mph71%29.50 "HgN/A
6:30 AM45 °FPassing clouds.8 mph71%29.50 "HgN/A
6:00 AM45 °FPassing clouds.12 mph71%29.53 "HgN/A
5:30 AM46 °FPassing clouds.16 mph66%29.53 "HgN/A
12:00 AM50 °FPassing clouds.10 mph88%29.45 "HgN/A
11:30 PM
Sat, Feb 13
50 °FLight rain. Passing clouds.3 mph100%29.45 "HgN/A
10:30 PM50 °FPassing clouds.1 mph94%29.47 "HgN/A
10:00 PM52 °FPassing clouds.2 mph94%29.47 "HgN/A
9:30 PM52 °FPassing clouds.9 mph94%29.47 "HgN/A
9:00 PM52 °FLight rain. Passing clouds.12 mph94%29.47 "HgN/A
8:30 PM52 °FPassing clouds.9 mph94%29.47 "HgN/A
8:00 PM52 °FPassing clouds.3 mph94%29.47 "HgN/A
7:30 PM52 °FLight rain. Partly cloudy.7 mph94%29.47 "Hg4 mi
7:00 PM52 °FLight rain. Partly cloudy.2 mph94%29.50 "Hg4 mi
6:30 PM52 °FLight rain. Broken clouds.2 mph94%29.53 "HgN/A
6:00 PM54 °FLight rain. Broken clouds.1 mph82%29.53 "Hg4 mi
5:30 PM55 °FPartly sunny.3 mph72%29.56 "HgN/A
5:00 PM55 °FLight rain. Scattered clouds.5 mph77%29.56 "HgN/A
4:30 PM57 °FScattered clouds.13 mph63%29.59 "HgN/A
4:00 PM59 °FPassing clouds.16 mph59%29.59 "HgN/A
Weather by CustomWeather, © 2016

See weather overviewHow to use our weather pages